Location: Newark
(15.4608°S, 41.1635°W)
Time: 01:04:06
(UTC+00:00)

Explorer 11/Cluster Stage 4 - Pass Details

Date: 04 August 2021
Orbit: 467 x 1256 km, 28.8° (Epoch: 24 September)

Event Time Altitude Azimuth Distance (km) Brightness Sun altitude
Rises 21:55:18 0° 268° (W) 3,086 11.1 -19.5°
Reaches altitude 10° 21:58:18 10° 254° (WSW) 2,026 9.6 -20.2°
Maximum altitude 22:02:03 24° 200° (SSW) 1,205 7.6 -21.1°
Enters shadow 22:02:57 22° 180° (S) 1,234 7.4 -21.3°
